Location: Belloy
(55.7522°N, 118.2333°W)
Time: 23:40:11
(UTC+00:00)

Envisat - Pass Details

Date: 04 December 2021
Orbit: 764 x 766 km, 98.2° (Epoch: 27 January)

Event Time Altitude Azimuth Distance (km) Brightness Sun altitude
Rises 12:10:02 0° 20° (NNE) 3,249 6.6 -31.3°
Reaches altitude 10° 12:12:37 10° 31° (NNE) 2,318 5.9 -30.9°
Maximum altitude 12:17:08 31° 93° (E) 1,333 4.7 -30.3°
Drops below altitude 10° 12:21:36 10° 155° (SSE) 2,302 5.7 -29.7°
Sets 12:24:09 0° 166° (SSE) 3,223 6.4 -29.3°
